Find TIGER-8

NORAD ID: 59120 Int'l Des: 2024-043 Owner: OQT Country: L operational
LEOCIRCULARRETROGRADESSO

リアルタイム位置

3D地球を読み込み中...

TIGER-8について

説明を読み込み中...

次回通過

Passes for default location (London). Set your location on the main map for personalized predictions.

高度履歴

Loading altitude history...

軌道要素

1 59120U 24043Y 26106.65491110 .00006685 00000-0 15071-3 0 9994
2 59120 97.5460 252.9414 0008936 71.8384 288.3835 15.43568487118293
Epoch: Apr 16, 2026 • Age: 26 hours

現在のステータス

高度 461.3 km
速度 7.63 km/s
衛星直下点 -57.19°S, 151.23°E
打ち上げ日 Mar 4, 2024
運用期間 2.1 years
タイプ other

技術仕様

分類 Payload
質量 10.00 kg
乾燥質量 10.00 kg
総質量 10.00 kg
長さ 0.30 m
直径 0.20 m
スパン 0.30 m
形状 Box+2 pan
製造者 NANAV
バスタイプ Cubesat 6U
フェーズステータス In Orbit
所有者/国 OQT/L

Most Searched